, OR

(GMT )
Tillamook

Weather History for KTMK - October, 2011

Change the Weather History Date:

Sunday, October 30, 2011

  Actual Average Record
Temperature  
Mean Temperature 56 °F -  
Max Temperature 60 °F - - ()
Min Temperature 53 °F - - ()
Degree Days  
Heating Degree Days 8    
Growing Degree Days 6 (Base 50)    
Moisture  
Dew Point 57 °F    
Average Humidity 100    
Maximum Humidity 100    
Minimum Humidity 100    
Precipitation  
Precipitation 0.26 in - - ()
Sea Level Pressure  
Sea Level Pressure 30.15 in    
Wind  
Wind Speed 2 mph (SW)    
Max Wind Speed 10 mph    
Max Gust Speed 18 mph    
Averages and records for this station are not official NWS values.
T = Trace of Precipitation, MM = Missing Value Source: NWS Daily Summary

Daily Weather History Graph

Daily Weather History Graph

Search for Another Location

Airport or City:

Trip Planner

Search our weather history database for the weather conditions in past years. The results will help you decide how hot, cold, wet, or windy it might be!

Date:

Astronomy

Oct. 30, 2011 Rise Set
Actual Time 8:51 AM MDT 7:05 PM MDT
Civil Twilight 8:20 AM MDT 7:36 PM MDT
Nautical Twilight 7:46 AM MDT 8:11 PM MDT
Astronomical Twilight 7:11 AM MDT 8:45 PM MDT
Moon 1:24 PM MDT (10/30) 10:32 PM MDT (10/30)
Length of Visible Light 11h 15m
Length of Day
10h 14m
Waxing Crescent, 20% of the Moon is Illuminated
Oct 30
Waxing Crescent
Nov 2
First Quarter
Nov 10
Full
Nov 18
Last Quarter
Nov 24
New

Hourly Weather History & Observations

Time (MDT) Temp. Dew Point Humidity Pressure Visibility Wind Dir Wind Speed Gust Speed Precip Events Conditions
12:15 AM 53.6 °F 53.6 °F 100% 30.20 in - Calm Calm - N/A   Overcast
12:35 AM 53.6 °F 53.6 °F 100% 30.19 in - Calm Calm - N/A   Overcast
12:55 AM 53.6 °F 53.6 °F 100% 30.19 in - Calm Calm - N/A   Overcast
1:15 AM 53.6 °F 53.6 °F 100% 30.18 in - Calm Calm - N/A   Unknown
1:35 AM 53.6 °F 53.6 °F 100% 30.18 in - Calm Calm - N/A   Overcast
1:55 AM 53.6 °F 53.6 °F 100% 30.19 in - Calm Calm - N/A   Overcast
2:15 AM 53.6 °F 53.6 °F 100% 30.18 in - Calm Calm - N/A   Overcast
2:35 AM 55.4 °F 55.4 °F 100% 30.17 in - Calm Calm - N/A   Overcast
2:55 AM 55.4 °F 55.4 °F 100% 30.17 in - Calm Calm - N/A   Overcast
3:15 AM 55.4 °F 55.4 °F 100% 30.17 in - Calm Calm - N/A   Overcast
3:35 AM 55.4 °F 55.4 °F 100% 30.16 in - Calm Calm - N/A   Overcast
3:55 AM 55.4 °F 55.4 °F 100% 30.16 in - Calm Calm - N/A   Overcast
4:15 AM 55.4 °F 55.4 °F 100% 30.16 in - West 4.6 mph - N/A   Overcast
4:35 AM 55.4 °F 55.4 °F 100% 30.16 in - Calm Calm - N/A   Overcast
4:55 AM 55.4 °F 55.4 °F 100% 30.15 in - ENE 3.5 mph - N/A   Unknown
5:15 AM 55.4 °F 55.4 °F 100% 30.15 in - NE 4.6 mph - N/A   Unknown
5:35 AM 55.4 °F 55.4 °F 100% 30.14 in - Calm Calm - 0.01 in   Unknown
6:15 AM 55.4 °F 55.4 °F 100% 30.13 in - Calm Calm - N/A   Overcast
6:35 AM 55.4 °F 55.4 °F 100% 30.13 in - Calm Calm - 0.01 in   Overcast
6:55 AM 55.4 °F 55.4 °F 100% 30.12 in - NE 3.5 mph - 0.03 in   Unknown
7:15 AM 55.4 °F 55.4 °F 100% 30.12 in - NNE 3.5 mph - 0.03 in   Overcast
7:35 AM 55.4 °F 55.4 °F 100% 30.12 in - NE 4.6 mph - 0.06 in   Unknown
8:15 AM 55.4 °F 55.4 °F 100% 30.12 in - Calm Calm - 0.03 in   Overcast
8:35 AM 57.2 °F 57.2 °F 100% 30.11 in - Calm Calm - 0.07 in   Unknown
8:55 AM 59.0 °F 59.0 °F 100% 30.12 in - SSW 5.8 mph - 0.07 in   Unknown
9:15 AM 60.8 °F 60.8 °F 100% 30.12 in - SSW 10.4 mph - 0.01 in   Unknown
9:35 AM 60.8 °F 60.8 °F 100% 30.13 in - SSW 9.2 mph 17.3 mph 0.02 in   Unknown
9:55 AM 60.8 °F 60.8 °F 100% 30.13 in - SSW 10.4 mph 18.4 mph 0.03 in   Overcast
10:15 AM 60.8 °F 60.8 °F 100% 30.13 in - SSW 6.9 mph - 0.01 in   Overcast
10:35 AM 60.8 °F 60.8 °F 100% 30.13 in - South 5.8 mph - 0.02 in   Unknown
10:55 AM 60.8 °F 60.8 °F 100% 30.14 in - SSW 4.6 mph - 0.03 in   Overcast
11:15 AM 60.8 °F 60.8 °F 100% 30.14 in - SSW 9.2 mph - N/A   Overcast
11:35 AM 60.8 °F 60.8 °F 100% 30.15 in - South 6.9 mph - N/A   Overcast
11:55 AM 60.8 °F 60.8 °F 100% 30.14 in - South 6.9 mph - N/A   Overcast
12:35 PM 60.8 °F 60.8 °F 100% 30.15 in - South 5.8 mph - 0.01 in   Overcast
12:55 PM 60.8 °F 60.8 °F 100% 30.16 in - SW 5.8 mph - 0.01 in   Overcast
1:15 PM 60.8 °F 60.8 °F 100% 30.16 in - WSW 4.6 mph - N/A   Overcast
1:35 PM 60.8 °F 60.8 °F 100% 30.16 in - SW 4.6 mph - 0.01 in   Overcast
1:55 PM 60.8 °F 60.8 °F 100% 30.15 in - WSW 8.1 mph - 0.01 in   Unknown
2:15 PM 59.0 °F 59.0 °F 100% 30.15 in - SW 8.1 mph - N/A   Unknown
2:35 PM 59.0 °F 59.0 °F 100% 30.15 in - SW 5.8 mph - N/A   Overcast
2:55 PM 59.0 °F 59.0 °F 100% 30.15 in - SW 5.8 mph - N/A   Unknown
3:15 PM 59.0 °F 59.0 °F 100% 30.14 in - WSW 8.1 mph - N/A   Overcast
3:35 PM 59.0 °F 59.0 °F 100% 30.15 in - WSW 6.9 mph - N/A   Overcast
3:55 PM 57.2 °F 57.2 °F 100% 30.15 in - WNW 9.2 mph - N/A   Overcast
4:15 PM 57.2 °F 57.2 °F 100% 30.15 in - WNW 4.6 mph - 0.01 in   Unknown
4:35 PM 57.2 °F 57.2 °F 100% 30.16 in - West 3.5 mph - 0.01 in   Unknown
4:55 PM 57.2 °F 57.2 °F 100% 30.16 in - Calm Calm - 0.01 in   Overcast
5:15 PM 57.2 °F 57.2 °F 100% 30.16 in - South 3.5 mph - N/A   Overcast
5:35 PM 57.2 °F 57.2 °F 100% 30.16 in - SW 4.6 mph - N/A   Unknown
5:55 PM 57.2 °F 57.2 °F 100% 30.16 in - SW 3.5 mph - N/A   Unknown
6:15 PM 57.2 °F 57.2 °F 100% 30.17 in - West 4.6 mph - N/A   Unknown
6:35 PM 57.2 °F 57.2 °F 100% 30.17 in - Calm Calm - N/A   Unknown
6:55 PM 57.2 °F 57.2 °F 100% 30.17 in - Calm Calm - N/A   Unknown
7:15 PM 57.2 °F 57.2 °F 100% 30.17 in - Calm Calm - N/A   Overcast
7:35 PM 57.2 °F 57.2 °F 100% 30.17 in - Calm Calm - N/A   Overcast
7:55 PM 55.4 °F 55.4 °F 100% 30.17 in - Calm Calm - N/A   Unknown
8:15 PM 55.4 °F 55.4 °F 100% 30.18 in - Calm Calm - N/A   Unknown
8:35 PM 55.4 °F 55.4 °F 100% 30.19 in - Calm Calm - N/A   Unknown
8:55 PM 55.4 °F 55.4 °F 100% 30.19 in - SW 4.6 mph - N/A   Unknown
9:15 PM 55.4 °F 55.4 °F 100% 30.19 in - SSW 3.5 mph - N/A   Unknown
9:35 PM 55.4 °F 55.4 °F 100% 30.19 in - Calm Calm - 0.01 in   Unknown
9:55 PM 53.6 °F 53.6 °F 100% 30.21 in - WNW 17.3 mph - 0.04 in   Unknown
10:15 PM 53.6 °F 53.6 °F 100% 30.22 in - WNW 12.7 mph - 0.01 in   Unknown
10:35 PM 53.6 °F 53.6 °F 100% 30.23 in - WNW 9.2 mph - 0.01 in   Unknown
10:55 PM 51.8 °F 51.8 °F 100% 30.25 in - WNW 6.9 mph - 0.01 in   Overcast
11:15 PM 51.8 °F 51.8 °F 100% 30.26 in - West 6.9 mph - N/A   Unknown
11:35 PM 51.8 °F 51.8 °F 100% 30.26 in - West 4.6 mph - N/A   Unknown
11:55 PM 51.8 °F 51.8 °F 100% 30.28 in - Calm Calm - N/A   Overcast